{"data":{"norad_id":69925,"intl_designator":"2026-156BJ","name":"ET-001A","alt_names":[],"object_type":"PAYLOAD","status":"ACTIVE","operator":null,"country":"US","launch_date":"2026-07-07","launch_site_code":"AFWTR","launch_vehicle":null,"mission":null,"orbit_class":"UNKNOWN","rcs_meters":null,"size_class":null,"mass_kg":null,"dimensions":null,"purposes":[],"wikipedia_slug":null,"has_3d_model":false,"image_url":null,"decayed_at":null,"tle_current":{"epoch":"2026-09-19T15:09:47.859552Z","epoch_age_seconds":92723,"freshness":"FRESH","line1":"1 69925U 26156BJ  26262.63180393  .00002248  00000+0  22358-3 0  9990","line2":"2 69925  97.7427 161.8878 0006669 268.6293  91.4163 14.92647734 11082","mean_motion":14.92647734,"eccentricity":0.0006669,"inclination_deg":97.7427,"raan_deg":161.8878,"arg_perigee_deg":268.6293,"mean_anomaly_deg":91.4163,"bstar":0.00022358,"rev_number":1108,"period_min":96.472862765891,"perigee_km":585.03671132622,"apogee_km":594.33039037695,"semimajor_km":6967.8205508516,"source":"CELESTRAK","updated_at":"2026-09-20T09:00:25.205170Z"}}}